Weather History for Millinocket, ME

Change the Weather History Date:

Thursday, May 24, 2012

  Actual Average Record
Temperature  
Mean Temperature 62 °F 56 °F  
Max Temperature 73 °F 67 °F 96 °F (1977)
Min Temperature 51 °F 44 °F 27 °F (1956)
Degree Days  
Heating Degree Days 3 10  
Month to date heating degree days 262 310  
Since 1 July heating degree days 7030 8231  
Cooling Degree Days 0 0  
Month to date cooling degree days 6 0  
Year to date cooling degree days 6 0  
Growing Degree Days 12 (Base 50)    
Moisture  
Dew Point 54 °F    
Average Humidity 79    
Maximum Humidity 100    
Minimum Humidity 57    
Precipitation  
Precipitation 0.00 in 0.11 in 1.12 in (2013)
Month to date precipitation 3.05 2.50  
Year to date precipitation 10.74 14.23  
Sea Level Pressure  
Sea Level Pressure 30.23 in    
Wind  
Wind Speed 4 mph (SSE)    
Max Wind Speed 9 mph    
Max Gust Speed 17 mph    
Visibility 8 miles    
Events Fog    
T = Trace of Precipitation, MM = Missing Value Source: NWS Daily Summary

Daily Weather History Graph

Daily Weather History Graph

Search for Another Location

Airport:

Trip Planner

Search our weather history database for the weather conditions in past years. The results will help you decide how hot, cold, wet, or windy it might be!

Date:

Astronomy

May. 24, 2012 Rise Set
Actual Time 4:54 AM EDT 8:09 PM EDT
Civil Twilight 4:18 AM EDT 8:45 PM EDT
Nautical Twilight 3:31 AM EDT 9:32 PM EDT
Astronomical Twilight 2:33 AM EDT 10:31 PM EDT
Moon 7:51 AM EDT (5/24) 11:04 PM EDT (5/24)
Length of Visible Light 16h 27m
Length of Day
15h 15m
Waxing Crescent, 12% of the Moon is Illuminated
May 24
Waxing Crescent
May 28
First Quarter
Jun 4
Full
Jun 11
Last Quarter
Jun 19
New

Hourly Weather History & Observations

Time (EDT) Temp. Dew Point Humidity Pressure Visibility Wind Dir Wind Speed Gust Speed Precip Events Conditions
12:42 AM 55.4 °F 53.6 °F 94% 30.14 in 10.0 mi Calm Calm - N/A   Mostly Cloudy
12:53 AM 55.9 °F 53.1 °F 90% 30.16 in 10.0 mi Calm Calm - N/A   Overcast
1:42 AM 53.6 °F 51.8 °F 94% 30.15 in 10.0 mi Calm Calm - N/A   Partly Cloudy
1:53 AM 54.0 °F 51.1 °F 90% 30.16 in 10.0 mi Calm Calm - N/A   Partly Cloudy
2:53 AM 52.0 °F 48.9 °F 89% 30.17 in 10.0 mi Calm Calm - N/A   Mostly Cloudy
3:06 AM 51.8 °F 50.0 °F 94% 30.17 in 10.0 mi Calm Calm - N/A   Overcast
3:53 AM 53.1 °F 51.1 °F 93% 30.20 in 5.0 mi Calm Calm - N/A   Overcast
4:01 AM 53.6 °F 51.8 °F 94% 30.18 in 2.5 mi Calm Calm - N/A   Overcast
4:11 AM 53.6 °F 51.8 °F 94% 30.18 in 9.0 mi Calm Calm - N/A   Overcast
4:53 AM 53.1 °F 51.1 °F 93% 30.21 in 9.0 mi Calm Calm - N/A   Overcast
5:07 AM 51.8 °F 50.0 °F 94% 30.20 in 2.0 mi Calm Calm - N/A   Overcast
5:14 AM 51.8 °F 50.0 °F 94% 30.20 in 1.5 mi Calm Calm - N/A   Overcast
5:21 AM 51.8 °F 50.0 °F 94% 30.21 in 1.2 mi Calm Calm - N/A   Overcast
5:36 AM 51.8 °F 51.8 °F 100% 30.21 in 2.0 mi Calm Calm - N/A   Overcast
5:45 AM 51.8 °F 51.8 °F 100% 30.21 in 0.8 mi Calm Calm - N/A   Overcast
5:53 AM 52.0 °F 51.1 °F 97% 30.23 in 0.2 mi Calm Calm - N/A Fog Fog
6:12 AM 53.6 °F 51.8 °F 94% 30.22 in 0.5 mi Calm Calm - N/A Fog Fog
6:33 AM 53.6 °F 51.8 °F 94% 30.22 in 1.5 mi Calm Calm - N/A   Overcast
6:37 AM 53.6 °F 51.8 °F 94% 30.23 in 4.0 mi Calm Calm - N/A   Overcast
6:53 AM 55.0 °F 53.1 °F 93% 30.25 in 8.0 mi Calm Calm - N/A   Overcast
7:01 AM 55.4 °F 53.6 °F 94% 30.23 in 10.0 mi Calm Calm - N/A   Mostly Cloudy
7:53 AM 61.0 °F 55.0 °F 81% 30.26 in 10.0 mi SE 3.5 mph - N/A   Mostly Cloudy
8:53 AM 61.0 °F 55.0 °F 81% 30.27 in 10.0 mi SSE 4.6 mph - N/A   Overcast
9:53 AM 63.0 °F 55.9 °F 78% 30.27 in 10.0 mi SSE 3.5 mph - N/A   Overcast
10:08 AM 64.4 °F 55.4 °F 73% 30.26 in 10.0 mi Variable 5.8 mph - N/A   Overcast
10:40 AM 66.2 °F 53.6 °F 64% 30.26 in 10.0 mi SSE 5.8 mph - N/A   Overcast
10:53 AM 66.0 °F 54.0 °F 65% 30.27 in 10.0 mi Variable 4.6 mph - N/A   Overcast
11:53 AM 70.0 °F 55.9 °F 61% 30.27 in 10.0 mi Variable 5.8 mph - N/A   Overcast
12:53 PM 69.1 °F 55.0 °F 61% 30.27 in 10.0 mi South 5.8 mph - N/A   Overcast
1:53 PM 72.0 °F 55.9 °F 57% 30.26 in 10.0 mi SE 8.1 mph - N/A   Overcast
2:53 PM 71.1 °F 57.0 °F 61% 30.26 in 10.0 mi SSE 6.9 mph - N/A   Overcast
3:53 PM 71.1 °F 57.9 °F 63% 30.25 in 10.0 mi SSE 10.4 mph 17.3 mph N/A   Overcast
4:53 PM 71.1 °F 57.9 °F 63% 30.23 in 10.0 mi Variable 5.8 mph - N/A   Overcast
5:53 PM 71.1 °F 57.9 °F 63% 30.23 in 10.0 mi Variable 3.5 mph - N/A   Overcast
6:53 PM 70.0 °F 57.9 °F 65% 30.22 in 10.0 mi Variable 5.8 mph - N/A   Overcast
7:53 PM 68.0 °F 57.0 °F 68% 30.23 in 10.0 mi SSE 6.9 mph - N/A   Overcast
8:53 PM 64.9 °F 57.0 °F 75% 30.27 in 10.0 mi Variable 4.6 mph - N/A   Mostly Cloudy
9:53 PM 62.1 °F 55.0 °F 78% 30.28 in 10.0 mi Variable 5.8 mph - N/A   Clear
10:26 PM 60.8 °F 55.4 °F 82% 30.27 in 10.0 mi Variable 5.8 mph - N/A   Mostly Cloudy
10:53 PM 59.0 °F 55.0 °F 87% 30.29 in 10.0 mi Calm Calm - N/A   Overcast
11:09 PM 59.0 °F 55.4 °F 88% 30.28 in 10.0 mi South 6.9 mph - N/A   Overcast
11:53 PM 59.0 °F 55.0 °F 87% 30.30 in 10.0 mi Variable 4.6 mph - N/A   Overcast